Location: Peebles
(55.6412°N, 3.1714°W)
Time: 13:30:58
(UTC+00:00)

RS-15 - Pass Details

Date: 07 December 2023
Orbit: 1893 x 2151 km, 64.8° (Epoch: 02 March)

Event Time Altitude Azimuth Distance (km) Brightness Sun altitude
Exits shadow 01:29:52 40° 59° (ENE) 2,685 8.8 -53.3°
Drops below altitude 10° 01:36:48 10° 85° (E) 4,360 10.1 -52.7°
Sets 01:40:11 0° 90° (E) 5,332 10.6 -52.4°
